This is the latest recevied weather packets stored in our database for station/object M0UPS-13. If no packets are shown the sender has not sent any weather packets the latest 1 day(s).
| Time | Temp. | Humidity | Pressure | Rain* | Wind** | Luminosity | Snow |
|---|---|---|---|---|---|---|---|
| 1778009704 | 13.89° C | 56% | 1011.9 hPa | 0 mm | 0 m/s | 0 W/m² | - |
| 1778009402 | 13.89° C | 56% | 1011.7 hPa | 0 mm | 0 m/s | 1 W/m² | - |
| 1778009102 | 14.44° C | 56% | 1011.7 hPa | 0 mm | 0 m/s | 1 W/m² | - |
| 1778008802 | 14.44° C | 55% | 1011.8 hPa | 0 mm | 0 m/s | 1 W/m² | - |
| 1778008502 | 14.44° C | 56% | 1011.7 hPa | 0 mm | 0 m/s | 2 W/m² | - |
| 1778008202 | 14.44° C | 55% | 1011.7 hPa | 0 mm | 0 m/s | 2 W/m² | - |
| 1778007902 | 14.44° C | 54% | 1011.7 hPa | 0 mm | 0.45 m/s, 258° | 3 W/m² | - |
| 1778007602 | 14.44° C | 53% | 1011.7 hPa | 0 mm | 0 m/s | 4 W/m² | - |
| 1778007302 | 14.44° C | 53% | 1011.7 hPa | 0 mm | 0.45 m/s, 36° | 5 W/m² | - |
| 1778007002 | 14.44° C | 53% | 1011.7 hPa | 0 mm | 0.45 m/s, 265° | 6 W/m² | - |
| 1778006702 | 14.44° C | 53% | 1011.6 hPa | 0 mm | 0 m/s | 8 W/m² | - |
| 1778006402 | 14.44° C | 53% | 1011.6 hPa | 0 mm | 0.45 m/s, 303° | 9 W/m² | - |
| 1778006102 | 14.44° C | 53% | 1011.6 hPa | 0 mm | 0.45 m/s, 259° | 9 W/m² | - |
| 1778005802 | 15° C | 52% | 1011.5 hPa | 0 mm | 0.89 m/s, 331° | 10 W/m² | - |
| 1778005502 | 14.44° C | 52% | 1011.6 hPa | 0 mm | 1.34 m/s, 152° | 9 W/m² | - |
| 1778005202 | 15° C | 52% | 1011.6 hPa | 0 mm | 0.89 m/s, 188° | 12 W/m² | - |
| 1778004902 | 15° C | 52% | 1011.6 hPa | 0 mm | 0.45 m/s, 217° | 13 W/m² | - |
| 1778004602 | 15° C | 52% | 1011.6 hPa | 0 mm | 0.45 m/s, 236° | 13 W/m² | - |
| 1778004303 | 15° C | 52% | 1011.6 hPa | 0 mm | 0.89 m/s, 185° | 16 W/m² | - |
| 1778004002 | 15° C | 52% | 1011.6 hPa | 0 mm | 0.45 m/s, 234° | 18 W/m² | - |
| 1778003702 | 15° C | 52% | 1011.5 hPa | 0 mm | 0.45 m/s, 325° | 17 W/m² | - |
| 1778003402 | 15° C | 51% | 1011.6 hPa | 0 mm | 0.45 m/s, 226° | 15 W/m² | - |
| 1778003102 | 15° C | 51% | 1011.6 hPa | 0 mm | 0 m/s | 12 W/m² | - |
| 1778002802 | 15.56° C | 51% | 1011.6 hPa | 0 mm | 0.45 m/s, 232° | 11 W/m² | - |
| 1778002502 | 15.56° C | 50% | 1011.7 hPa | 0 mm | 0.45 m/s, 336° | 11 W/m² | - |
* Rain latest hour (hover to see other rain measurements)
** Current wind speed in m/s (hover to see current wind gust speed)